Regional Weather Roundup
Issued by NWS

Home | Current Version | Previous Version | Graphics & Text | Print | Product List | Glossary On
Versions: 1 2 3 4 5 6 7 8 9 10 11 12 13 14 15 16 17 18 19 20 21 22 23 24 25 26 27 28 29 30 31 32 33 34 35 36 37 38 39 40 41 42 43 44 45 46 47 48 49 50
000
ASUS43 KLMK 012310
RWRKY
KENTUCKY REGIONAL WEATHER ROUNDUP
NATIONAL WEATHER SERVICE LOUISVILLE KY
700 PM EDT WED JUL 01 2015

NOTE "FAIR" INDICATES FEW OR NO CLOUDS BELOW 12,000 FEET
WITH NO SIGNIFICANT WEATHER AND/OR OBSTRUCTIONS TO VISIBILITY.

KYZ001>023-026-027-061>063-070>075-020000-
WESTERN AND SOUTH CENTRAL KENTUCKY

CITY           SKY/WX    TMP DP  RH WIND       PRES   REMARKS
PADUCAH        MOSUNNY   81  67  62 SW15      29.90S
HENDERSON      PTSUNNY   81  68  65 SW5       29.87F
OWENSBORO      PTSUNNY   82  70  67 SW7       29.90R
HOPKINSVILLE   CLOUDY    76  69  79 SW15      29.94R
BOWLING GREEN  CLOUDY    79  66  64 SW9       29.91S
GLASGOW        CLOUDY    79  67  65 SW9       29.91S
$$

KYZ024-025-028>034-038-045-046-053-020000-
NORTH CENTRAL KENTUCKY

CITY           SKY/WX    TMP DP  RH WIND       PRES   REMARKS
LOUISVILLE/SDF PTSUNNY   79  66  64 CALM      29.89S
LOUISVILLE/LOU MOSUNNY   78  66  66 CALM      29.89F
FORT KNOX      PTSUNNY   75  68  79 W3        29.89S
$$

KYZ035>037-039>044-047>052-055>060-089>105-020000-
NORTHEAST KENTUCKY

CITY           SKY/WX    TMP DP  RH WIND       PRES   REMARKS
LEXINGTON      CLOUDY    73  68  84 CALM      29.92F HAZE
COVINGTON      CLOUDY    78  63  59 N3        29.90S
FRANKFORT      CLOUDY    73  66  78 CALM      29.90S HAZE
$$

KYZ054-064>069-076>088-106>120-020000-
SOUTHEAST KENTUCKY

CITY           SKY/WX    TMP DP  RH WIND       PRES   REMARKS
JACKSON        CLOUDY    72  66  81 CALM      29.95F
LONDON         CLOUDY    72  67  84 S3        29.94F
SOMERSET       CLOUDY    72  70  94 E3        29.93F
MIDDLESBORO    CLOUDY    72  69  91 CALM      29.97F
MONTICELLO     CLOUDY    77  70  79 S9        29.95S
$$




USA.gov is the U.S. government's official web portal to all federal, state and local government web resources and services.